GFSFLT1_850_temp_000.txt.gz
Temp
24 23 23 24 25 24 24 24 23 23 23 23 23 23 23 23 21 21 21 20 20 19 18 17 17 17 16 15 15 15 15 14 14
24 24 24 24 25 25 24 24 24 24 24 24 24 23 23 23 22 21 22 21 21 19 18 18 17 17 16 15 14 14 14 14 14
24 24 23 23 23 25 25 25 24 24 24 25 25 24 24 23 23 22 22 21 21 20 19 18 17 16 16 15 15 14 14 14 15
25 25 24 24 24 26 26 26 25 24 24 24 25 24 24 24 23 22 21 22 21 20 19 18 17 17 17 16 14 14 14 14 14
25 26 26 25 25 25 25 25 25 24 25 24 25 25 24 24 23 21 21 21 21 20 20 19 18 17 17 16 15 14 14 14 14
25 26 26 25 24 25 25 25 25 24 24 25 25 24 24 23 22 21 21 21 21 20 20 19 18 17 17 16 16 15 15 15 15
27 27 27 26 26 26 27 27 26 24 25 25 24 24 24 23 22 22 20 20 20 20 20 19 18 18 17 17 16 16 16 16 15
25 26 26 27 27 28 27 26 25 24 23 23 24 24 24 24 23 21 19 19 18 19 19 18 18 18 17 16 16 16 16 16 15
26 27 28 29 29 28 28 28 28 26 24 23 23 23 23 23 21 20 18 15 16 17 18 18 18 18 17 16 16 16 16 15 15
29 31 30 30 30 30 30 30 28 27 26 23 22 22 21 20 19 18 17 17 17 16 18 19 19 18 17 16 17 17 15 15 15
30 30 29 29 30 30 29 28 28 27 25 24 22 22 20 19 18 19 17 19 18 16 18 19 19 17 17 17 16 17 15 15 15
26 27 28 29 28 28 28 27 26 26 25 23 22 21 20 19 18 19 18 19 19 16 16 18 17 17 17 17 17 16 16 15 14
25 26 27 28 28 28 28 27 27 26 24 22 22 20 20 19 17 17 18 19 17 16 16 16 15 16 16 15 14 15 15 14 15
25 26 25 26 26 26 26 26 26 26 25 24 22 21 18 17 17 16 17 17 16 15 16 16 17 17 17 17 14 13 14 15 15
25 25 25 25 25 25 25 25 25 24 24 20 22 20 17 16 16 16 18 17 16 15 16 17 17 16 17 16 15 13 14 15 15
24 24 24 24 24 25 26 25 23 24 21 23 21 18 16 15 15 15 14 14 14 15 15 16 17 17 15 15 14 14 15 15 14
24 24 24 23 24 23 23 23 22 20 20 21 19 18 15 14 14 14 14 15 15 15 15 15 15 15 15 15 15 15 15 14 13
22 22 23 23 22 22 22 21 21 20 19 19 18 18 16 15 15 15 15 15 16 15 16 15 16 15 15 15 14 14 13 12 12
21 22 22 22 21 21 21 21 21 19 19 20 20 20 19 17 15 16 15 16 16 16 15 15 15 14 14 13 13 13 12 11 11
20 20 21 20 20 20 20 19 18 18 17 17 18 19 18 16 17 16 15 16 15 15 15 15 14 13 13 12 12 11 11 10 9

GFSFLT1_850_temp_003.txt.gz
Temp
26 25 25 24 23 25 25 24 24 24 23 22 22 22 22 21 21 20 21 21 20 19 19 19 17 17 16 16 15 15 15 14 14
26 25 25 24 24 25 26 25 25 24 23 23 23 23 22 22 21 21 21 21 20 20 20 19 18 18 17 16 15 15 15 14 14
27 26 25 25 24 25 26 26 25 25 24 24 24 24 23 23 22 22 22 21 20 20 20 18 18 18 17 16 16 15 14 14 14
28 26 25 25 23 25 27 27 26 25 25 24 24 24 24 24 23 23 22 22 23 22 20 21 19 18 17 17 16 16 15 15 14
27 26 25 24 23 23 25 26 27 26 25 25 25 25 25 24 24 23 24 23 20 22 20 18 19 18 17 17 16 16 15 14 14
25 24 24 24 23 23 24 25 26 26 26 26 25 24 24 24 24 24 23 23 21 20 20 18 18 18 18 18 17 16 15 15 14
25 23 24 24 23 26 27 27 27 27 26 25 24 25 24 24 24 24 22 21 19 19 19 17 17 18 18 18 17 16 16 15 15
23 23 23 25 28 29 29 27 26 26 25 25 24 24 24 23 21 21 21 21 20 18 18 16 15 17 17 17 16 17 17 15 15
24 24 26 28 30 29 29 29 28 26 25 24 24 23 22 21 20 21 20 19 18 19 17 16 15 16 16 16 16 17 16 15 15
25 28 30 31 31 28 28 27 27 26 25 24 23 22 21 20 20 20 20 19 17 16 17 18 14 16 16 17 16 16 16 16 15
25 25 25 24 23 26 27 26 26 25 24 23 22 21 20 20 19 19 18 17 16 15 17 18 16 16 17 16 16 16 15 15 15
27 27 27 27 27 27 27 27 26 26 26 25 24 23 21 20 19 18 18 17 16 15 16 16 16 16 16 16 16 16 15 15 15
26 27 27 28 27 27 27 27 26 26 26 26 24 22 21 20 18 17 17 16 15 15 15 15 16 15 15 16 17 17 16 17 16
24 25 26 27 27 27 26 26 26 26 25 25 24 23 22 19 18 18 17 15 15 15 15 15 15 16 16 17 17 17 16 16 15
25 25 25 26 26 26 26 26 26 25 25 24 23 21 21 18 17 16 16 15 15 15 14 14 15 16 16 17 17 17 16 16 15
23 24 25 24 25 25 25 24 24 24 23 21 20 21 19 17 16 16 16 15 16 15 14 13 14 15 16 16 17 17 15 15 15
23 22 23 23 23 23 23 23 23 22 21 20 19 20 18 18 17 16 16 15 15 15 15 15 15 15 16 16 16 16 15 15 14
22 22 22 22 22 22 22 22 21 20 20 20 21 20 19 18 18 17 16 14 15 15 15 15 15 15 16 16 16 15 14 14 13
21 21 20 21 21 21 21 20 20 19 19 17 17 15 15 17 17 16 15 15 15 15 15 15 15 15 15 15 15 14 14 14 13
20 20 21 20 20 20 20 19 18 18 17 17 16 17 16 16 15 15 15 15 14 14 14 14 14 15 15 14 14 13 13 13 12

GFSFLT1_850_temp_006.txt.gz
Temp
32 30 29 28 26 25 24 24 23 22 21 23 22 22 21 21 19 19 19 19 20 19 19 19 18 17 17 16 15 15 15 15 14
33 31 30 29 27 26 25 24 23 23 23 23 23 22 22 22 21 20 20 20 18 19 18 19 17 18 17 16 15 14 14 15 14
33 31 30 30 28 27 26 25 24 23 23 24 23 22 23 23 22 21 20 19 18 20 18 18 17 18 17 17 15 14 14 15 14
34 32 30 30 29 28 26 26 25 24 23 22 23 23 23 23 21 20 22 20 21 20 19 19 18 18 18 16 18 15 14 14 15
36 33 31 30 29 28 27 26 26 25 24 23 22 24 24 23 21 21 21 23 22 23 20 21 20 19 17 16 16 15 14 14 15
34 31 30 29 29 28 27 27 26 26 25 25 24 23 22 22 23 22 20 22 22 21 21 21 19 21 19 17 16 15 14 14 14
32 29 29 28 28 27 26 26 25 25 26 25 25 24 23 21 21 20 19 20 22 22 20 20 20 22 19 18 16 15 15 14 14
33 29 28 27 27 27 25 25 25 24 25 25 25 24 23 22 20 19 18 19 22 21 20 21 21 21 21 18 16 16 15 15 15
33 30 28 27 27 26 25 25 24 24 23 23 23 23 22 22 20 18 18 21 21 20 20 20 20 20 19 17 16 17 15 15 15
32 31 29 27 27 26 25 24 23 23 22 22 22 21 21 20 19 19 19 19 19 19 19 18 18 18 18 18 16 16 16 16 15
33 30 29 27 27 26 24 24 24 23 23 24 22 21 20 19 19 19 19 19 19 18 18 17 17 16 17 16 15 17 15 15 15
30 29 28 27 26 24 24 24 24 25 24 24 22 21 20 21 20 18 19 19 19 18 17 15 14 15 16 13 14 15 16 16 15
27 27 26 26 25 24 23 24 25 25 23 24 24 25 24 23 22 20 20 19 18 16 15 14 14 14 14 14 14 16 17 16 16
26 25 24 24 23 23 25 25 23 22 22 24 25 25 24 24 22 20 18 17 18 16 15 14 14 14 14 14 15 16 16 16 16
23 23 24 24 23 23 22 23 24 25 25 25 24 23 22 22 20 19 17 17 16 16 15 14 14 14 14 14 14 16 16 16 15
24 24 25 24 23 21 22 23 22 23 25 25 24 23 21 20 19 16 16 16 16 15 15 14 14 14 14 14 14 16 16 15 15
22 22 23 23 22 22 23 24 24 24 23 23 22 21 21 20 18 16 15 15 15 15 15 14 14 14 14 14 15 15 16 15 15
21 20 21 21 21 20 22 22 22 22 22 21 20 19 17 16 16 15 15 15 15 15 15 15 15 13 14 14 14 14 13 13 13
18 19 19 19 19 19 19 20 20 20 19 18 17 16 16 15 16 15 15 14 14 14 15 15 15 15 14 15 14 15 14 14 14
17 19 19 18 18 17 18 17 16 16 16 16 15 16 16 16 16 16 16 15 15 14 14 14 15 15 15 15 15 14 14 14 13

GFSFLT1_850_temp_009.txt.gz
Temp
36 34 32 31 30 28 27 26 25 24 23 21 21 20 20 20 20 20 20 20 21 20 21 21 20 18 17 16 16 16 15 15 15
36 35 33 32 30 29 27 26 25 24 23 22 21 20 20 20 20 20 21 21 21 21 21 21 19 18 17 16 16 16 15 16 15
36 35 34 33 31 29 28 26 25 24 23 22 22 21 21 20 20 20 20 20 20 20 20 20 20 18 17 17 17 17 16 16 15
36 36 34 33 32 30 29 27 26 25 24 23 22 21 21 21 20 20 20 21 20 20 20 19 19 19 19 19 17 19 20 15 16
36 36 35 33 33 31 30 28 27 26 25 24 23 22 22 21 21 21 20 20 20 20 20 19 20 21 21 19 19 18 18 19 16
36 36 35 34 33 32 30 29 28 27 26 26 25 23 23 22 21 21 21 20 20 21 20 19 21 21 22 19 19 19 20 20 17
35 35 33 34 33 32 31 30 28 27 27 27 26 25 24 23 22 21 21 21 20 21 20 19 22 21 22 20 19 20 19 19 18
35 35 33 32 32 32 31 30 28 27 27 27 27 26 25 24 22 21 21 21 20 20 19 19 21 22 22 21 18 18 18 18 18
35 35 35 32 31 31 30 29 28 27 27 27 27 26 25 25 23 22 21 21 20 19 19 17 18 19 21 21 19 17 17 18 18
34 34 35 33 31 30 29 28 27 27 26 26 26 26 25 25 23 23 21 20 19 19 18 17 18 19 19 19 16 15 18 18 16
34 34 34 34 31 30 28 28 27 26 25 25 25 24 24 24 23 22 20 19 19 18 17 17 17 17 17 15 14 15 17 17 16
34 34 35 33 31 29 28 27 27 25 24 24 23 23 22 22 21 20 19 19 18 18 17 16 16 15 15 15 15 14 16 15 14
32 32 34 32 30 29 27 27 26 24 24 23 23 22 21 21 20 20 19 18 18 17 16 16 15 15 15 15 15 15 14 14 16
31 31 31 29 29 27 25 26 25 24 23 23 22 22 21 21 19 19 18 17 17 17 17 16 15 15 15 15 15 15 15 16 16
29 29 28 27 26 25 24 24 24 23 23 23 22 21 20 19 18 18 18 18 17 17 16 15 15 15 15 15 15 14 15 15 16
26 26 26 26 24 23 23 23 23 22 22 22 21 20 19 18 18 17 17 17 17 16 15 15 15 15 15 15 15 15 15 15 16
26 25 25 24 23 23 22 22 22 20 19 19 19 19 20 18 17 17 16 16 16 15 15 15 16 15 15 15 15 14 15 15 15
24 24 24 23 22 21 20 20 19 18 18 18 18 17 17 18 17 16 16 16 15 15 15 15 16 16 15 15 14 15 15 15 15
22 22 21 21 21 20 19 18 18 17 17 17 17 17 17 16 15 15 15 15 15 15 15 15 15 16 15 15 15 15 15 14 14
19 21 21 21 20 19 19 18 17 18 18 17 17 18 18 18 18 18 17 17 16 15 15 15 16 15 15 15 15 15 14 14 13

GFSFLT1_850_temp_015.txt.gz
Temp
30 29 30 30 30 28 27 26 26 25 24 24 23 22 22 21 20 21 21 22 21 21 22 21 20 20 20 20 20 21 20 19 20
30 31 32 30 30 28 27 26 26 26 24 24 24 23 22 22 21 20 21 22 21 21 21 21 21 21 20 20 20 21 20 20 19
32 33 32 30 30 29 28 27 27 26 25 24 24 23 23 22 22 21 21 22 21 21 21 21 21 21 21 20 20 20 21 20 19
31 33 33 31 31 30 29 27 27 26 25 24 24 24 23 22 22 22 21 21 21 22 21 21 21 21 21 20 20 20 21 20 19
32 32 32 32 31 30 29 28 27 26 26 25 24 24 24 23 23 22 21 22 21 22 21 21 21 21 21 21 20 20 21 21 19
34 35 33 32 31 29 29 28 27 26 26 26 25 24 24 23 23 22 23 22 22 22 22 21 21 21 20 21 21 21 20 20 19
34 34 35 33 31 31 30 29 28 26 26 26 26 25 24 23 23 24 24 24 23 22 22 21 21 21 21 20 20 20 20 19 19
34 35 35 35 31 30 29 29 29 27 26 25 26 25 24 24 24 23 24 23 23 23 22 21 21 20 20 20 20 20 19 18 18
35 35 35 35 34 32 31 30 29 28 26 26 26 26 25 24 23 23 23 23 23 22 22 21 21 20 20 19 19 19 19 18 18
34 34 34 34 34 33 33 32 31 29 28 26 26 26 25 25 24 23 23 22 22 21 21 20 20 20 20 19 19 20 17 17 16
34 33 32 34 34 33 32 32 32 31 29 27 27 26 26 26 25 25 23 22 22 21 21 20 20 20 20 19 19 18 17 16 15
34 34 33 33 33 34 32 32 32 31 28 27 27 26 27 26 26 25 24 23 22 22 21 20 20 20 20 20 19 18 17 16 16
33 33 33 34 34 33 34 32 32 31 30 27 27 27 27 26 26 25 24 23 23 22 21 21 20 20 19 18 17 17 16 15 15
31 33 33 33 34 33 33 32 31 30 29 28 28 27 26 26 26 25 24 23 23 22 21 21 20 18 18 17 17 16 16 15 15
30 31 31 33 33 33 33 32 31 29 28 28 25 26 26 25 25 24 24 23 23 22 21 19 18 17 17 17 16 16 15 15 15
30 31 31 31 32 33 33 30 30 29 27 26 25 25 25 24 23 22 21 22 23 21 19 17 17 17 16 16 16 16 16 16 15
28 29 30 29 28 27 27 28 28 27 26 25 24 24 23 22 22 21 21 20 21 19 18 17 17 16 16 16 16 16 16 16 15
24 24 25 27 26 25 25 25 25 24 24 23 23 22 21 21 21 20 20 19 18 17 17 16 16 16 16 16 17 16 16 16 16
20 19 21 23 23 23 22 22 22 22 22 22 22 22 20 19 19 19 18 18 17 16 16 16 16 16 16 16 16 16 16 15 15
19 19 16 21 21 20 21 21 21 21 21 22 21 21 20 19 18 18 17 16 16 17 15 15 16 16 15 15 15 15 15 15 15

GFSFLT1_850_temp_021.txt.gz
Temp
26 26 25 25 25 25 25 25 25 25 25 25 24 23 23 23 23 22 22 21 21 21 21 20 20 20 20 20 20 19 19 20 20
27 26 26 26 26 26 25 24 25 26 25 25 25 24 24 23 23 22 22 21 21 20 21 21 21 21 20 20 20 19 19 20 21
27 27 26 27 26 26 27 26 26 26 26 26 26 25 24 24 24 23 22 21 21 21 21 20 20 21 20 20 20 19 20 20 21
27 27 27 27 28 27 27 26 25 26 26 25 25 25 25 24 24 23 22 22 22 22 21 21 20 21 21 20 20 20 20 20 19
30 28 28 29 29 28 27 26 25 25 26 26 25 26 25 25 25 24 23 22 22 22 21 21 21 21 20 20 20 20 20 20 20
31 29 28 27 28 28 28 27 26 25 25 27 26 26 25 25 25 24 24 23 22 22 22 21 21 20 20 20 20 20 20 20 20
32 30 28 29 29 28 29 29 29 26 27 27 27 26 25 25 25 25 25 24 23 22 23 22 21 21 20 20 20 20 20 20 20
30 28 29 29 29 30 30 29 28 27 26 25 26 26 26 26 26 26 25 24 23 23 23 22 22 21 21 20 20 20 20 20 20
28 31 28 29 29 32 31 31 30 30 29 27 26 26 27 27 26 26 26 25 24 23 22 22 22 22 21 21 21 20 20 20 20
29 32 30 28 29 30 31 33 33 30 31 30 27 27 26 26 26 26 26 25 24 23 23 22 22 22 22 21 21 21 21 20 20
32 32 32 32 30 30 31 34 33 32 30 29 28 28 26 24 25 27 26 25 24 24 23 23 23 23 22 22 22 22 21 20 19
32 33 33 33 33 33 33 33 34 31 27 27 27 27 27 27 26 26 25 26 25 24 22 23 23 23 22 22 22 21 20 19 18
32 32 32 33 33 33 32 33 32 30 28 26 29 29 30 29 27 26 26 27 26 24 23 23 22 22 22 22 21 20 20 19 18
30 31 31 32 32 34 33 32 30 29 28 27 30 31 31 26 26 26 26 26 25 25 23 22 22 21 22 21 21 21 21 21 19
28 29 29 30 30 30 30 30 31 30 28 32 32 29 28 27 27 26 24 24 23 23 21 21 22 21 21 21 21 21 20 22 18
26 27 27 28 29 30 30 29 27 27 32 32 30 27 27 26 25 25 22 23 22 21 22 21 20 21 21 20 20 18 18 19 18
25 26 27 28 29 30 29 28 26 26 27 27 28 29 29 28 25 23 25 24 22 22 22 21 21 22 21 20 19 19 18 19 17
23 23 24 24 26 26 26 23 22 23 23 24 25 25 25 24 23 21 21 19 19 19 21 23 23 22 22 21 19 21 20 19 17
20 21 22 23 23 23 23 23 23 21 22 22 22 23 22 21 20 20 19 18 19 19 22 22 21 19 18 19 18 19 18 16 15
20 20 21 22 22 22 23 23 23 23 21 19 20 20 18 18 19 18 19 18 17 17 16 15 16 18 17 17 17 17 16 16 16

GFSFLT1_850_temp_024.txt.gz
Temp
25 24 24 23 24 24 25 25 25 25 24 24 24 24 23 22 22 21 21 21 21 21 21 21 20 20 20 20 19 19 19 19 19
26 25 24 24 24 24 24 25 26 25 25 25 25 25 24 24 23 22 22 21 21 21 21 21 21 20 20 20 20 19 19 19 19
26 26 25 25 24 24 25 26 26 26 26 26 26 25 25 24 24 24 23 22 22 21 21 21 21 20 20 20 20 19 19 19 19
28 27 26 26 26 25 26 26 25 26 26 26 25 25 25 25 24 24 23 23 23 22 21 21 21 21 20 20 20 20 19 19 19
28 30 30 29 28 26 25 25 25 26 26 26 26 26 26 25 25 24 24 23 23 22 22 21 21 21 20 20 20 20 20 20 20
29 30 30 28 26 26 26 26 26 26 27 27 26 25 26 25 25 25 24 24 24 23 22 21 21 21 21 21 21 20 20 20 20
30 31 31 30 27 27 26 26 28 27 27 27 25 24 25 25 26 26 26 26 25 24 23 22 21 21 21 21 20 20 20 20 20
29 30 30 30 29 28 27 27 26 27 27 27 27 26 25 25 26 26 26 26 25 24 24 23 22 22 21 21 21 20 21 20 20
29 32 31 31 30 29 28 27 28 28 29 28 27 27 28 26 24 25 26 26 26 25 25 24 23 22 22 21 21 21 21 20 20
30 31 32 31 32 30 29 29 29 29 30 30 28 28 28 27 26 26 26 25 26 26 25 24 23 22 22 22 21 21 21 20 20
31 31 32 32 31 32 31 30 29 29 29 30 30 28 27 27 26 26 25 24 25 26 25 25 24 23 23 22 22 21 21 21 20
30 32 32 33 33 33 33 31 31 30 29 29 27 28 26 25 26 26 26 25 26 26 25 25 25 24 23 23 23 22 22 21 20
31 31 31 31 31 31 32 31 31 30 30 30 30 29 29 29 27 26 27 27 27 26 25 25 25 24 24 23 23 22 22 21 20
28 29 30 31 31 31 32 31 30 30 30 30 31 30 27 26 25 26 27 27 24 23 23 23 24 24 24 23 22 23 22 21 21
25 26 27 29 29 29 30 29 28 27 28 30 28 27 27 26 25 25 25 25 23 26 22 22 23 22 22 23 22 22 22 21 19
24 24 25 25 27 26 27 27 26 24 24 24 24 24 24 24 23 21 22 22 23 24 25 20 18 19 19 21 22 22 21 20 19
21 22 22 23 24 25 25 24 24 25 24 24 24 23 22 23 22 22 21 20 19 19 23 21 24 21 19 20 21 21 19 18 18
20 21 21 22 23 23 23 23 24 25 25 25 25 24 23 22 21 21 20 19 20 18 19 19 19 18 18 18 21 20 21 19 16
21 22 23 23 23 24 24 24 24 24 25 25 25 24 24 23 22 21 20 19 18 19 19 19 19 18 18 19 18 15 15 15 15
18 19 20 21 22 22 23 24 24 24 24 24 24 24 24 22 21 21 20 18 18 18 18 19 19 16 19 19 19 16 14 16 15

GFSFLT1_850_temp_027.txt.gz
Temp
26 25 24 24 23 23 24 25 24 24 24 24 23 23 23 22 22 22 22 22 21 21 21 21 21 21 20 20 20 19 19 19 19
27 26 25 24 24 25 25 26 25 24 24 25 24 24 24 23 23 22 22 22 22 22 21 21 21 21 20 20 20 20 19 19 20
28 28 26 26 24 24 25 26 26 26 26 26 25 25 24 24 24 24 23 23 22 22 22 21 21 21 21 20 20 20 20 19 19
29 28 27 27 26 25 25 24 23 25 26 26 26 26 26 25 25 24 24 23 23 23 22 21 21 20 21 21 20 20 20 19 19
28 28 27 28 27 25 24 24 23 24 25 26 26 27 26 26 26 25 25 24 24 24 23 22 21 21 20 21 21 20 20 20 20
28 28 26 27 26 26 26 25 24 24 26 26 26 25 26 26 26 26 25 25 25 24 24 23 22 21 21 21 21 21 21 20 20
28 29 29 29 29 29 27 26 25 25 25 25 25 25 25 26 26 26 26 26 25 25 24 24 23 22 21 21 21 21 21 21 20
27 27 28 29 30 31 30 27 25 26 25 25 25 24 25 27 27 26 26 25 25 25 24 24 24 23 22 22 22 21 21 21 21
29 27 29 31 31 30 30 30 28 26 26 27 26 27 28 28 26 26 26 26 26 25 25 24 24 24 23 22 23 22 22 21 21
28 30 31 32 31 31 31 31 31 29 28 26 26 28 28 27 27 27 26 25 25 26 25 25 25 24 24 23 23 23 23 22 21
28 30 31 31 32 32 32 31 30 29 27 27 26 26 26 26 26 27 25 24 25 26 26 26 26 25 24 24 23 23 23 22 22
29 30 31 31 31 31 31 32 31 29 28 27 27 27 27 27 26 26 25 24 25 25 25 25 26 25 25 25 24 24 23 22 22
29 29 29 30 31 30 31 31 29 27 28 27 28 28 29 29 27 26 26 27 25 25 24 25 25 26 26 25 25 24 24 23 22
28 29 29 30 30 30 31 31 30 29 27 27 29 26 25 25 25 25 23 22 21 21 20 19 24 24 27 26 25 24 24 23 22
27 26 28 29 30 30 30 30 29 29 28 27 26 26 26 26 26 25 23 22 23 27 21 18 18 18 21 25 26 25 24 23 23
23 23 26 26 27 28 28 28 28 28 27 26 26 25 25 24 24 24 23 22 21 21 19 19 19 18 18 18 19 24 24 24 22
20 22 22 23 24 24 25 26 27 27 27 26 26 26 26 26 25 23 22 20 18 20 21 21 24 18 19 18 19 18 23 22 21
19 21 22 23 23 24 24 24 25 25 25 25 25 25 25 24 23 23 22 22 22 21 21 24 26 24 22 18 21 22 18 18 18
18 19 20 21 22 22 22 23 23 23 24 24 24 24 24 23 23 21 20 20 21 21 20 22 23 22 18 20 24 21 17 18 18
15 17 18 19 20 20 20 20 21 21 22 22 22 22 22 20 21 19 18 20 19 19 18 19 18 18 18 19 19 18 17 17 18

GFSFLT1_850_temp_030.txt.gz
Temp
32 30 28 28 27 26 24 24 23 22 21 23 23 22 22 22 22 20 20 20 21 20 21 21 20 19 20 20 20 20 20 19 19
33 31 29 28 27 26 25 24 23 23 23 25 24 24 23 23 23 22 20 20 21 20 20 21 20 19 21 20 21 20 20 19 20
33 32 30 29 28 27 26 25 24 23 25 26 25 24 24 24 24 23 23 22 22 22 21 21 20 19 20 20 20 21 20 20 20
33 32 31 30 29 28 27 26 25 23 22 24 26 25 25 25 24 24 24 23 23 23 23 22 22 21 21 19 19 21 21 20 19
33 33 32 31 31 30 28 27 26 25 23 23 24 27 27 26 25 25 25 24 24 24 23 23 22 22 21 21 19 20 21 21 19
32 32 31 31 31 30 29 28 27 26 24 24 23 23 25 26 26 26 25 25 25 25 24 24 23 22 22 21 21 20 21 21 21
31 30 30 30 30 30 30 28 27 25 26 25 24 23 22 24 27 27 27 26 26 26 25 24 24 23 23 22 21 21 21 22 21
31 31 30 30 29 29 28 28 27 25 25 25 25 24 23 23 27 27 27 27 27 26 25 25 25 24 23 23 22 20 22 22 22
29 30 30 31 30 28 28 27 26 26 25 25 24 24 23 23 23 25 27 26 26 26 26 26 25 25 24 24 23 22 21 23 22
29 29 30 30 30 30 29 28 28 27 28 24 24 24 23 22 23 24 26 24 23 25 25 24 26 25 25 24 24 23 23 23 23
29 30 30 30 31 31 30 29 30 27 26 25 24 24 24 23 22 23 22 22 23 24 24 23 23 25 25 25 24 24 24 23 23
29 29 30 30 30 30 30 29 28 27 25 24 23 24 25 27 24 21 20 22 26 24 22 21 19 19 20 23 24 24 24 23 23
30 30 29 29 29 29 28 29 28 26 26 25 24 27 28 25 26 24 24 24 22 21 19 19 19 19 19 20 22 21 22 24 23
25 26 27 27 27 28 29 29 29 29 26 26 28 23 23 24 26 26 26 25 25 23 22 20 20 20 22 21 20 22 22 23 24
23 25 26 26 25 27 26 27 30 30 30 29 25 24 24 23 23 24 21 23 23 22 22 22 22 21 22 27 25 24 25 25 24
24 24 25 24 25 24 23 26 28 28 29 28 24 23 24 23 23 24 23 22 21 19 19 20 20 20 19 21 25 28 26 24 23
22 23 22 22 23 22 21 24 24 25 27 26 26 25 25 24 21 21 20 21 20 20 20 20 21 21 20 22 22 25 25 23 21
20 20 20 20 21 20 19 20 20 21 22 21 22 21 21 21 21 21 20 20 21 21 21 22 21 21 21 21 20 21 23 24 25
18 18 18 18 18 18 18 18 20 22 22 23 21 20 22 22 23 23 22 22 21 21 21 21 21 21 21 22 21 20 19 19 20
14 16 17 17 17 17 17 17 19 22 23 23 23 21 21 20 20 22 23 23 22 22 20 21 20 21 22 21 21 21 20 19 18

GFSFLT1_850_temp_033.txt.gz
Temp
34 33 32 31 29 28 27 25 24 23 22 20 20 21 20 21 21 20 20 21 22 21 22 22 22 21 20 19 19 19 19 19 18
35 34 33 31 30 29 27 26 25 23 23 22 23 22 22 22 23 22 21 21 21 21 21 23 22 21 20 19 19 19 19 19 19
35 35 33 32 31 29 28 27 25 24 23 23 26 24 24 24 23 23 22 21 21 21 22 21 22 21 20 19 19 19 19 19 19
35 35 34 33 31 30 29 28 27 25 23 22 22 25 24 24 24 24 23 23 22 22 22 21 22 21 21 20 20 19 19 19 20
35 35 34 33 32 31 30 29 28 26 25 24 22 23 25 25 25 24 24 24 23 22 22 22 22 22 21 21 21 20 19 20 20
35 35 34 33 33 32 31 30 29 28 26 25 24 23 22 22 24 25 25 24 25 24 24 23 23 22 21 22 22 21 20 20 21
34 33 33 34 34 33 32 31 30 28 28 27 26 25 23 23 22 25 25 24 25 25 25 25 24 22 22 22 22 22 22 22 21
32 32 32 32 32 32 32 31 30 29 28 28 27 26 25 23 23 22 22 23 25 26 25 25 25 25 23 23 23 21 22 22 21
31 31 31 31 32 31 31 31 30 29 28 27 27 26 25 24 23 22 22 22 23 25 26 26 26 26 25 24 23 21 21 21 21
31 31 31 31 31 32 31 30 29 29 28 27 27 26 26 25 24 23 22 21 21 24 26 25 26 26 25 25 25 24 23 22 21
30 30 31 31 32 32 32 32 31 29 28 26 26 26 25 25 24 23 22 22 21 21 22 22 23 24 24 25 25 25 25 24 22
29 30 30 31 31 32 32 32 32 31 28 28 26 25 25 24 23 23 22 24 23 22 21 21 22 22 22 23 25 25 25 24 24
29 30 30 31 31 31 31 31 31 30 30 28 27 28 25 24 23 22 22 23 23 22 21 22 21 21 22 23 24 26 26 26 23
24 25 26 27 28 28 29 29 30 29 29 29 28 26 24 23 23 22 22 22 23 23 22 21 21 21 22 23 25 26 27 27 26
23 24 25 26 27 28 26 27 28 27 28 30 27 26 25 23 22 22 22 21 21 21 21 20 21 21 22 22 24 25 24 25 26
23 25 25 26 27 27 26 26 25 25 26 26 26 25 24 23 22 22 22 22 21 21 20 21 21 21 21 21 22 20 21 22 21
24 24 25 25 25 25 25 23 23 23 24 24 24 24 23 23 22 22 21 22 21 21 22 21 21 22 21 22 21 21 21 21 20
22 23 22 22 23 23 22 21 21 21 22 22 22 22 22 22 22 22 22 21 23 23 22 23 23 23 23 23 23 23 22 22 21
20 21 20 20 20 20 19 19 19 18 20 20 22 22 23 24 24 24 22 23 22 22 23 23 22 23 23 23 23 23 23 23 22
17 18 19 20 19 19 19 18 17 19 18 19 20 21 23 23 24 25 25 25 24 24 24 23 23 22 22 21 21 21 21 21 21

GFSFLT1_850_temp_036.txt.gz
Temp
34 33 33 31 29 27 26 26 24 23 22 22 22 21 21 21 21 20 21 21 21 22 22 22 21 22 21 21 21 20 20 20 19
35 34 34 32 30 28 27 26 25 24 22 22 22 22 21 21 21 21 22 22 21 22 22 22 22 22 22 21 21 21 20 20 20
36 35 34 33 30 29 27 26 26 24 23 23 23 23 23 23 24 23 22 22 21 22 21 22 23 22 22 22 21 20 20 20 20
36 36 34 33 31 30 28 27 26 25 24 23 22 23 25 24 24 24 23 22 22 22 22 21 23 21 22 22 21 20 19 20 20
36 36 34 34 32 31 29 28 26 25 24 23 23 22 22 23 23 24 24 24 23 22 22 22 22 22 21 21 21 21 21 20 21
35 35 35 34 33 32 30 29 28 26 25 24 23 21 22 22 23 23 24 24 24 23 23 22 22 22 22 21 22 22 22 21 21
35 35 35 34 33 32 31 30 29 28 26 25 24 23 22 21 21 22 24 24 24 24 24 24 23 23 22 21 22 22 22 22 21
35 34 34 34 34 32 32 31 30 28 28 27 26 25 24 23 22 22 22 22 23 24 24 25 25 24 23 22 21 22 22 22 22
32 32 32 32 32 32 32 31 31 30 29 28 27 26 26 24 24 23 22 22 22 22 22 23 23 23 24 23 23 23 24 23 22
31 31 31 31 31 32 31 31 31 30 29 29 28 27 27 26 25 24 23 22 22 22 22 22 23 23 24 25 25 25 25 24 23
31 31 31 31 31 32 32 31 31 30 29 29 28 28 28 27 26 25 24 24 23 22 22 22 23 22 23 24 26 26 26 25 25
30 30 30 30 31 31 32 32 31 31 30 29 28 27 27 27 26 25 25 24 24 22 22 22 22 23 22 24 26 26 26 25 24
25 26 26 27 28 30 31 32 32 31 30 29 29 29 28 27 26 26 25 24 23 22 22 22 21 22 23 23 25 25 25 23 22
24 24 25 25 26 28 28 30 30 31 30 29 29 29 28 27 27 26 25 24 23 22 22 21 21 21 21 22 24 25 24 23 21
23 23 25 26 26 27 27 28 29 29 29 30 30 29 28 27 26 25 24 23 23 22 21 21 21 21 21 22 23 23 22 22 21
22 23 25 25 26 27 27 27 26 27 27 27 28 28 28 27 26 24 24 23 22 21 21 21 21 21 21 21 21 21 20 20 20
20 20 23 24 24 25 26 26 25 24 26 25 25 26 26 25 25 24 23 23 22 21 21 21 21 21 21 21 21 21 22 21 22
18 19 21 22 22 23 23 22 22 23 23 23 24 25 24 24 23 23 22 22 22 22 22 21 21 21 22 22 22 22 22 23 22
17 18 19 21 21 21 20 20 20 21 21 22 22 22 22 23 23 23 22 22 22 22 22 22 22 23 23 22 22 23 23 23 23
16 17 18 19 20 20 20 19 18 19 20 21 22 22 23 23 24 25 24 24 23 23 23 23 23 23 23 23 23 23 23 22 22

GFSFLT1_850_temp_042.txt.gz
Temp
23 24 25 25 24 24 24 25 24 24 23 23 23 22 22 22 21 21 21 21 20 20 20 20 20 20 20 20 20 20 20 20 19
25 25 26 26 25 24 24 24 25 24 24 23 23 23 22 22 21 21 21 21 20 21 20 20 21 21 21 20 20 20 20 20 20
26 27 26 26 25 24 24 25 26 25 24 24 24 23 23 22 22 21 21 21 21 21 21 20 21 21 21 21 21 20 20 20 20
28 28 27 27 25 25 25 24 25 26 24 24 24 24 23 23 22 21 21 20 21 21 21 21 21 21 21 21 21 21 20 21 21
29 29 28 27 26 25 25 24 24 25 25 24 24 25 24 23 23 22 21 21 21 21 21 21 21 21 21 21 21 21 21 21 21
30 29 28 28 26 25 25 24 24 25 25 26 25 24 24 23 23 22 22 22 22 22 22 21 21 21 21 21 21 21 21 21 21
32 30 29 28 26 26 26 25 25 25 26 26 26 25 25 24 24 23 23 23 23 23 23 22 22 21 21 21 21 21 21 21 21
31 29 29 27 27 26 26 26 25 25 26 26 26 26 25 25 25 25 24 24 24 23 23 23 22 22 22 21 21 21 21 21 21
28 28 29 28 27 26 27 27 26 26 26 27 27 26 27 27 26 25 25 25 25 24 24 24 23 23 23 22 22 21 21 21 21
26 28 28 28 27 28 29 30 28 27 28 27 27 27 27 26 26 25 25 25 25 25 25 25 24 24 24 23 23 23 22 22 22
26 27 28 28 27 27 26 26 26 26 25 27 27 27 27 27 26 26 26 24 24 25 24 24 25 25 25 25 24 24 23 23 22
22 25 27 27 28 28 28 27 27 27 27 28 27 27 27 28 27 27 26 26 25 25 24 24 24 24 24 24 24 24 23 22 21
22 23 24 26 28 28 28 29 29 29 29 28 28 28 28 28 27 27 27 27 26 26 26 25 25 25 24 24 24 23 23 22 21
20 21 23 25 27 28 27 27 28 29 28 28 29 29 29 28 28 27 27 27 26 26 25 25 25 25 25 24 24 23 22 21 21
19 21 23 23 25 26 27 27 27 27 27 26 27 27 28 29 29 28 27 26 26 25 25 25 25 24 24 24 23 22 22 21 21
17 19 20 20 22 22 24 26 26 26 26 27 27 27 27 28 28 28 27 27 27 26 25 24 24 23 23 23 22 22 21 21 20
17 18 19 19 20 21 21 22 23 24 24 24 25 26 27 27 27 27 27 27 27 26 25 24 23 22 22 22 22 22 22 21 21
17 17 18 19 19 20 20 21 21 21 22 22 23 24 26 27 27 27 27 26 26 25 25 24 24 23 22 22 22 22 21 21 21
16 17 17 19 19 20 20 20 20 21 21 21 21 22 22 24 25 25 25 25 25 24 23 23 22 22 22 21 21 21 21 21 21
16 16 17 17 18 19 19 19 19 19 19 20 20 20 21 21 22 23 23 23 23 23 22 21 21 21 21 21 21 21 21 21 21

GFSFLT1_850_temp_045.txt.gz
Temp
24 23 23 22 22 23 23 23 22 22 22 22 22 22 22 22 21 21 21 22 21 21 20 20 20 20 20 19 20 19 19 19 19
25 23 23 23 23 23 22 23 23 24 23 23 23 22 22 22 22 21 21 22 21 21 20 20 20 20 20 20 20 20 19 19 19
25 24 23 23 23 23 23 24 24 24 24 24 23 23 22 22 22 22 22 21 21 21 20 20 20 20 20 20 20 20 20 19 20
25 25 24 25 24 24 23 23 23 24 23 24 23 23 23 22 22 22 22 21 21 21 21 20 20 20 20 20 20 20 20 20 20
28 26 25 25 25 24 24 23 22 23 23 23 23 24 23 23 23 23 22 22 22 21 21 20 20 20 20 20 21 20 20 20 20
29 27 26 25 25 24 24 24 23 23 23 23 24 24 24 23 23 22 22 22 22 22 21 21 20 20 20 21 21 21 21 21 20
28 28 27 27 26 25 25 25 23 23 23 24 24 24 24 23 23 23 23 23 22 22 22 21 21 20 20 20 20 21 21 21 21
26 27 27 27 26 25 25 24 24 23 24 25 25 24 24 24 24 24 23 23 23 23 23 23 22 22 21 21 20 20 21 21 21
25 27 27 27 27 26 25 24 26 24 24 25 26 25 26 25 25 24 24 24 23 23 23 23 23 23 22 22 21 21 21 21 21
24 27 27 27 26 26 25 25 26 26 27 26 26 25 26 25 25 24 25 25 24 24 24 24 24 24 23 23 23 23 22 22 21
21 25 27 27 27 26 25 25 26 26 26 25 25 25 26 25 25 25 24 24 24 24 24 24 24 24 24 24 24 24 23 23 22
18 23 27 27 26 25 25 25 26 26 26 27 26 27 27 26 26 26 25 25 25 25 24 24 24 24 24 24 24 24 24 23 22
19 21 25 27 26 26 26 25 26 26 26 26 27 28 28 27 27 26 26 26 26 26 25 25 25 25 24 24 24 24 23 23 22
18 21 23 24 26 26 26 26 27 27 27 28 29 28 26 27 28 28 27 27 26 26 26 25 25 25 25 24 24 24 23 23 22
17 20 22 24 25 26 26 27 26 26 26 26 27 26 25 26 26 26 26 26 26 26 25 25 25 24 24 24 23 23 23 22 22
16 17 18 20 22 23 23 25 25 25 24 24 25 25 25 25 25 25 25 25 25 25 25 25 25 24 24 23 23 23 22 22 22
16 17 17 19 20 21 21 22 23 24 23 24 25 25 25 25 24 25 25 24 25 24 24 25 25 25 24 24 23 23 22 22 21
16 17 18 18 18 19 19 20 21 22 23 24 25 25 25 25 25 25 25 24 25 25 25 25 25 25 24 23 22 22 21 21 21
16 16 17 18 18 18 19 19 19 20 21 22 23 23 24 25 25 25 25 25 25 25 25 25 24 24 23 22 21 21 20 20 20
15 16 17 17 17 17 18 19 19 19 19 20 20 21 22 23 23 23 23 23 23 24 24 24 23 22 21 21 21 21 20 20 20

GFSFLT1_850_temp_048.txt.gz
Temp
22 21 20 20 20 21 21 21 20 21 21 21 21 22 22 21 21 21 21 21 21 21 21 21 20 20 19 19 19 19 19 19 19
23 22 22 21 21 21 21 22 22 22 22 22 22 22 22 22 22 21 21 21 21 21 21 21 20 20 20 20 19 19 19 19 19
24 23 23 22 22 21 22 23 23 23 22 23 23 23 22 22 22 22 21 21 21 21 21 21 20 20 20 20 20 19 19 19 19
25 24 23 23 23 24 23 22 23 23 23 23 23 23 23 22 22 22 22 21 21 21 21 21 21 20 20 20 20 20 19 19 19
29 27 25 25 24 23 23 23 23 23 24 23 23 23 23 23 23 23 22 22 22 21 21 21 21 20 20 20 20 20 20 20 20
26 27 25 24 23 23 23 23 23 23 24 24 24 23 23 23 23 23 23 22 22 22 21 21 21 21 20 20 20 20 20 20 20
29 28 28 27 24 23 23 23 25 25 24 24 24 23 23 23 24 24 23 23 22 22 22 21 21 21 21 21 21 21 20 20 20
22 24 27 28 27 25 24 23 24 24 23 24 24 23 23 24 24 24 24 23 23 23 22 22 21 22 22 21 21 21 21 21 21
18 20 23 25 28 26 24 24 25 26 25 24 24 24 24 24 24 24 24 24 23 23 23 22 22 22 22 22 22 22 22 21 21
15 19 23 25 26 26 25 24 24 26 27 25 25 26 26 24 23 24 24 24 24 23 23 23 22 22 22 23 23 23 23 22 22
14 16 22 25 25 26 26 25 25 25 25 26 26 26 25 25 25 25 24 24 24 24 23 23 23 23 23 23 24 24 23 23 22
14 16 21 25 26 25 24 25 24 25 25 25 26 26 27 26 26 25 25 25 24 24 24 24 24 24 23 23 24 24 24 23 23
16 17 20 25 26 26 25 24 24 25 25 26 27 27 28 26 26 26 26 26 26 25 25 24 24 23 23 24 24 23 23 23 22
16 16 19 23 25 26 25 25 25 25 25 27 27 26 26 26 26 26 26 26 25 25 24 24 24 24 24 23 23 24 23 23 22
16 17 19 21 23 25 25 25 25 25 25 25 25 26 26 26 26 26 25 25 25 24 24 24 23 23 24 24 24 24 24 23 23
16 16 17 18 19 21 24 23 24 24 24 24 25 24 24 24 25 25 25 25 25 24 24 24 24 24 24 24 24 24 24 23 23
16 16 16 17 18 18 19 20 21 22 22 23 24 24 24 24 24 24 23 23 23 23 24 24 24 24 25 25 24 24 24 23 22
15 16 17 17 17 17 18 19 20 21 22 22 23 24 24 24 24 23 24 23 23 24 23 24 25 25 25 24 24 24 22 21 21
15 16 17 17 17 17 17 18 19 20 21 22 22 23 23 24 24 25 25 24 24 24 24 25 24 23 24 22 22 22 21 21 21
14 15 16 17 17 17 17 17 18 18 19 20 21 22 22 22 22 22 23 24 24 24 24 23 22 20 21 21 22 21 21 20 20